Weather History for KBPC - January, 2014

Change the Weather History Date:

Tuesday, January 14, 2014

  Actual Average (KBGD) Record (KBGD)
Temperature  
Mean Temperature 40 °F 38 °F  
Max Temperature 50 °F 51 °F 71 °F (1969)
Min Temperature 30 °F 26 °F -2 °F (1963)
Degree Days  
Heating Degree Days 25 27  
Month to date heating degree days 382  
Since 1 July heating degree days 1919  
Cooling Degree Days 0 0  
Month to date cooling degree days 0  
Year to date cooling degree days 0  
Moisture  
Dew Point 18 °F    
Average Humidity 44    
Maximum Humidity 64    
Minimum Humidity 26    
Precipitation  
Precipitation 0.00 in 0.02 in 0.28 in (1960)
Month to date precipitation 0.22  
Year to date precipitation 0.22  
Snow  
Snow 0.00 in - 3.20 in (1951)
Month to date snowfall  
Since 1 July snowfall  
Snow Depth -    
Sea Level Pressure  
Sea Level Pressure 30.21 in    
Wind  
Wind Speed 11 mph (NW)    
Max Wind Speed 28 mph    
Max Gust Speed 37 mph    
Visibility 10 miles    
Events      
T = Trace of Precipitation, MM = Missing Value Source: NWS Daily Summary

Daily Weather History Graph

Daily Weather History Graph

Search for Another Location

Airport or City:

Trip Planner

Search our weather history database for the weather conditions in past years. The results will help you decide how hot, cold, wet, or windy it might be!

Date:

Astronomy

Jan. 14, 2014 Rise Set
Actual Time 7:53 AM CST 5:52 PM CST
Civil Twilight 7:26 AM CST 6:20 PM CST
Nautical Twilight 6:54 AM CST 6:52 PM CST
Astronomical Twilight 6:23 AM CST 7:22 PM CST
Moon 4:58 PM CST (1/14) 6:30 AM CST (1/14)
Length of Visible Light 10h 54m
Length of Day
9h 58m
Waxing Gibbous, 98% of the Moon is Illuminated
Jan 14
Waxing Gibbous
Jan 15
Full
Jan 23
Last Quarter
Jan 30
New
Feb 6
First Quarter

Hourly Weather History & Observations

Time (CST) Temp. Windchill Dew Point Humidity Pressure Visibility Wind Dir Wind Speed Gust Speed Precip Events Conditions
12:15 AM 39.2 °F 32.0 °F 6.8 °F 26% 29.98 in 10.0 mi WSW 11.5 mph - N/A   Clear
12:35 AM 37.4 °F 29.8 °F 6.8 °F 28% 29.98 in 10.0 mi WSW 11.5 mph - N/A   Clear
12:55 AM 37.4 °F 29.3 °F 8.6 °F 30% 29.97 in 10.0 mi WSW 12.7 mph - N/A   Clear
1:15 AM 35.6 °F 28.0 °F 8.6 °F 33% 29.96 in 10.0 mi SW 10.4 mph - N/A   Clear
1:35 AM 35.6 °F 27.5 °F 8.6 °F 33% 29.96 in 10.0 mi SW 11.5 mph - N/A   Clear
1:55 AM 35.6 °F 27.5 °F 8.6 °F 33% 29.96 in 10.0 mi WSW 11.5 mph - N/A   Clear
2:15 AM 35.6 °F 28.0 °F 8.6 °F 33% 29.96 in 10.0 mi WSW 10.4 mph - N/A   Clear
2:35 AM 35.6 °F 28.6 °F 8.6 °F 33% 29.96 in 10.0 mi SW 9.2 mph - N/A   Clear
2:55 AM 35.6 °F 30.7 °F 8.6 °F 33% 29.96 in 10.0 mi SW 5.8 mph - N/A   Clear
3:15 AM 33.8 °F 29.6 °F 8.6 °F 35% 29.98 in 10.0 mi West 4.6 mph - N/A   Clear
3:35 AM 33.8 °F 28.6 °F 8.6 °F 35% 29.99 in 10.0 mi West 5.8 mph - N/A   Clear
3:55 AM 32.0 °F 26.4 °F 8.6 °F 38% 29.99 in 10.0 mi WSW 5.8 mph - N/A   Clear
4:15 AM 30.2 °F 22.6 °F 10.4 °F 44% 30.00 in 10.0 mi WSW 8.1 mph - N/A   Clear
4:35 AM 30.2 °F 22.6 °F 10.4 °F 44% 30.02 in 10.0 mi WSW 8.1 mph - N/A   Clear
4:55 AM 32.0 °F 25.6 °F 10.4 °F 41% 30.04 in 10.0 mi NW 6.9 mph - N/A   Clear
5:15 AM 35.6 °F 29.9 °F 12.2 °F 38% 30.04 in 10.0 mi North 6.9 mph - N/A   Clear
5:35 AM 33.8 °F 27.7 °F 12.2 °F 41% 30.05 in 10.0 mi North 6.9 mph - N/A   Clear
5:55 AM 35.6 °F 29.9 °F 14.0 °F 41% 30.05 in 10.0 mi North 6.9 mph - N/A   Clear
6:15 AM 35.6 °F 29.2 °F 17.6 °F 48% 30.06 in 10.0 mi North 8.1 mph - N/A   Clear
6:35 AM 37.4 °F 31.4 °F 19.4 °F 48% 30.06 in 10.0 mi North 8.1 mph - N/A   Clear
6:55 AM 35.6 °F - 19.4 °F 52% 30.07 in 10.0 mi Calm Calm - N/A   Clear
7:15 AM 37.4 °F 34.9 °F 21.2 °F 52% 30.08 in 10.0 mi NNW 3.5 mph - N/A   Clear
7:35 AM 39.2 °F 37.0 °F 23.0 °F 52% 30.08 in 10.0 mi North 3.5 mph - N/A   Clear
7:55 AM 39.2 °F 35.0 °F 23.0 °F 52% 30.10 in 10.0 mi North 5.8 mph - N/A   Clear
8:15 AM 39.2 °F - 23.0 °F 52% 30.12 in 10.0 mi Calm Calm - N/A   Scattered Clouds
8:35 AM 37.4 °F - 23.0 °F 56% 30.13 in 10.0 mi Calm Calm - N/A   Clear
8:55 AM 35.6 °F 30.7 °F 23.0 °F 60% 30.17 in 10.0 mi WSW 5.8 mph - N/A   Clear
9:15 AM 35.6 °F 29.9 °F 23.0 °F 60% 30.19 in 10.0 mi WSW 6.9 mph - N/A   Clear
9:35 AM 37.4 °F 32.8 °F 23.0 °F 56% 30.20 in 10.0 mi West 5.8 mph - N/A   Clear
9:55 AM 44.6 °F 39.2 °F 26.6 °F 49% 30.21 in 10.0 mi NNE 10.4 mph 17.3 mph N/A   Clear
10:15 AM 42.8 °F 38.0 °F 28.4 °F 57% 30.23 in 10.0 mi NE 8.1 mph 20.7 mph N/A   Clear
10:35 AM 46.4 °F 40.1 °F 26.6 °F 46% 30.25 in 10.0 mi NE 15.0 mph 21.9 mph N/A   Clear
10:55 AM 46.4 °F 39.5 °F 23.0 °F 40% 30.26 in 10.0 mi NNE 17.3 mph 23.0 mph N/A   Clear
11:15 AM 46.4 °F 38.7 °F 19.4 °F 34% 30.27 in 10.0 mi NNE 20.7 mph 26.5 mph N/A   Scattered Clouds
11:35 AM 46.4 °F 38.5 °F 17.6 °F 32% 30.28 in 10.0 mi NNE 21.9 mph 27.6 mph N/A   Mostly Cloudy
11:55 AM 48.2 °F - 21.2 °F 34% 30.28 in 10.0 mi NNE 19.6 mph 27.6 mph N/A   Overcast
12:15 PM 48.2 °F - 23.0 °F 37% 30.27 in 10.0 mi North 17.3 mph 27.6 mph N/A   Scattered Clouds
12:35 PM 50.0 °F - 23.0 °F 35% 30.27 in 10.0 mi North 23.0 mph 29.9 mph N/A   Scattered Clouds
12:55 PM 48.2 °F - 19.4 °F 32% 30.27 in 10.0 mi NNE 23.0 mph 29.9 mph N/A   Scattered Clouds
1:15 PM 46.4 °F 38.5 °F 17.6 °F 32% 30.27 in - North 21.9 mph - N/A   Unknown
1:35 PM 46.4 °F 39.2 °F 17.6 °F 32% 30.27 in 10.0 mi North 18.4 mph 27.6 mph N/A   Clear
1:55 PM 46.4 °F 39.0 °F 19.4 °F 34% 30.27 in 10.0 mi North 19.6 mph 25.3 mph N/A   Clear
2:15 PM 48.2 °F - 21.2 °F 34% 30.28 in 10.0 mi North 21.9 mph 32.2 mph N/A   Scattered Clouds
2:35 PM 46.4 °F 37.5 °F 23.0 °F 40% 30.29 in 10.0 mi North 27.6 mph 36.8 mph N/A   Scattered Clouds
2:55 PM 46.4 °F 38.5 °F 23.0 °F 40% 30.30 in 10.0 mi North 21.9 mph 32.2 mph N/A   Unknown
3:15 PM 46.4 °F 38.1 °F 23.0 °F 40% 30.31 in 10.0 mi North 24.2 mph 33.4 mph N/A   Mostly Cloudy
3:35 PM 44.6 °F 35.5 °F 19.4 °F 37% 30.32 in 10.0 mi North 25.3 mph 34.5 mph N/A   Scattered Clouds
3:55 PM 46.4 °F 39.0 °F 19.4 °F 34% 30.33 in 10.0 mi North 19.6 mph 31.1 mph N/A   Clear
4:15 PM 44.6 °F 35.9 °F 19.4 °F 37% 30.34 in 10.0 mi North 23.0 mph 28.8 mph N/A   Clear
4:35 PM 42.8 °F 33.8 °F 19.4 °F 39% 30.35 in 10.0 mi North 21.9 mph 27.6 mph N/A   Clear
4:55 PM 42.8 °F 34.5 °F 17.6 °F 36% 30.35 in 10.0 mi North 18.4 mph 27.6 mph N/A   Clear
5:15 PM 41.0 °F 31.6 °F 17.6 °F 39% 30.36 in 10.0 mi North 20.7 mph 26.5 mph N/A   Clear
5:35 PM 41.0 °F 32.5 °F 17.6 °F 39% 30.36 in 10.0 mi North 17.3 mph 23.0 mph N/A   Clear
5:55 PM 41.0 °F 33.5 °F 19.4 °F 42% 30.37 in 10.0 mi NNW 13.8 mph 20.7 mph N/A   Clear
6:15 PM 39.2 °F 31.6 °F 23.0 °F 52% 30.38 in 10.0 mi NNW 12.7 mph 16.1 mph N/A   Clear
6:35 PM 37.4 °F 29.3 °F 23.0 °F 56% 30.38 in 10.0 mi NNW 12.7 mph 17.3 mph N/A   Clear
6:55 PM 37.4 °F 28.5 °F 21.2 °F 52% 30.39 in 10.0 mi NNW 15.0 mph 20.7 mph N/A   Scattered Clouds
7:15 PM 39.2 °F 32.0 °F 21.2 °F 49% 30.39 in 10.0 mi NW 11.5 mph - N/A   Scattered Clouds
7:35 PM 37.4 °F 30.8 °F 21.2 °F 52% 30.40 in 10.0 mi NW 9.2 mph - N/A   Scattered Clouds
7:55 PM 37.4 °F 28.9 °F 19.4 °F 48% 30.40 in 10.0 mi NNW 13.8 mph - N/A   Scattered Clouds
8:15 PM 37.4 °F 29.3 °F 19.4 °F 48% 30.40 in 10.0 mi NNW 12.7 mph 19.6 mph N/A   Scattered Clouds
8:55 PM 35.6 °F 29.9 °F 19.4 °F 52% 30.41 in 10.0 mi NW 6.9 mph - N/A   Clear
9:15 PM 32.0 °F 24.8 °F 19.4 °F 60% 30.40 in 10.0 mi West 8.1 mph - N/A   Clear
9:35 PM 32.0 °F 24.8 °F 19.4 °F 60% 30.41 in 10.0 mi West 8.1 mph - N/A   Scattered Clouds
9:55 PM 32.0 °F 24.8 °F 19.4 °F 60% 30.40 in 10.0 mi WNW 8.1 mph - N/A   Mostly Cloudy
10:15 PM 32.0 °F 24.8 °F 19.4 °F 60% 30.39 in 10.0 mi WSW 8.1 mph - N/A   Scattered Clouds
10:35 PM 30.2 °F 22.6 °F 17.6 °F 60% 30.39 in 10.0 mi West 8.1 mph - N/A   Clear
10:55 PM 30.2 °F 22.6 °F 17.6 °F 60% 30.39 in 10.0 mi WSW 8.1 mph - N/A   Clear
11:15 PM 30.2 °F 21.9 °F 19.4 °F 64% 30.39 in 10.0 mi WSW 9.2 mph - N/A   Scattered Clouds
11:35 PM 32.0 °F 23.6 °F 19.4 °F 60% 30.39 in 10.0 mi WSW 10.4 mph - N/A   Scattered Clouds
11:55 PM 30.2 °F 21.3 °F 19.4 °F 64% 30.39 in 10.0 mi West 10.4 mph - N/A   Clear